Location: Cheyres
(46.8153°N, 6.7877°E)
Time: 14:04:56
(UTC+00:00)

Meteor 2-9 Rocket - Pass Details

Date: 11 May 2021
Orbit: 791 x 895 km, 81.3° (Epoch: 19 June)

Event Time Altitude Azimuth Distance (km) Brightness Sun altitude
Rises 22:19:01 0° 349° (N) 3,503 8.8 -23.2°
Reaches altitude 10° 22:21:30 10° 351° (N) 2,550 7.8 -23.3°
Maximum altitude 22:27:20 81° 78° (ENE) 883 4.2 -23.6°
Enters shadow 22:28:34 56° 155° (SSE) 1,016 4.2 -23.6°
